Regional Weather Roundup
Issued by NWS

Home | Current Version | Previous Version | Text Only | Print | Product List | Glossary On
Versions: 1 2 3 4 5 6 7 8 9 10 11 12 13 14 15 16 17 18 19 20 21 22 23 24 25 26 27 28 29 30 31 32 33 34 35 36 37 38 39 40 41 42 43 44 45 46 47 48 49 50
000
ASUS43 KBIS 220420
RWRND

NORTH DAKOTA REGIONAL WEATHER ROUNDUP
NATIONAL WEATHER SERVICE BISMARCK ND
1100 PM CDT THU AUG 21 2014

NOTE: "FAIR" INDICATES FEW OR NO CLOUDS BELOW 12,000 FEET WITH NO
SIGNIFICANT WEATHER AND/OR OBSTRUCTIONS TO VISIBILITY.


NDZ001>003-009>011-017-220500-
NORTHWEST NORTH DAKOTA

CITY           SKY/WX    TMP DP  RH WIND       PRES   REMARKS
WILLISTON      CLOUDY    64  58  80 CALM      30.02R
MINOT          PTCLDY    63  60  90 NW7       29.98S
MINOT AFB      PTCLDY    63  63  99 NW7       29.98S
$$

NDZ018>021-031>035-040>046-220500-
SOUTHWEST NORTH DAKOTA

CITY           SKY/WX    TMP DP  RH WIND       PRES   REMARKS
BISMARCK       PTCLDY    68  63  84 NE3       29.95F
DICKINSON      LGT RAIN  65  60  84 N6        30.01R
GARRISON         N/A     66  63  90 NE7       29.98F
HETTINGER ARPT TSTM      60  56  86 SW16G24   30.01R
$$

NDZ004>008-012>016-024-026-027-054-220500-
NORTHEAST NORTH DAKOTA

CITY           SKY/WX    TMP DP  RH WIND       PRES   REMARKS
GRAND FORKS    MOCLDY    70  69  97 CALM      29.86S
GRND FRKS AFB  MOCLDY    68  68 100 NW5       29.88S
DEVILS LAKE    PTCLDY    66  61  82 N9        29.92R
$$

NDZ022-023-025-028>030-036>039-047>053-220500-
SOUTHEAST NORTH DAKOTA

CITY           SKY/WX    TMP DP  RH WIND       PRES   REMARKS
FARGO          CLEAR     68  66  93 CALM      29.87R
JAMESTOWN      CLEAR     68  66  93 NW3       29.90S
$$




USA.gov is the U.S. government's official web portal to all federal, state and local government web resources and services.